EST,Max TemperatureF,Mean TemperatureF,Min TemperatureF,Max Dew PointF,MeanDew PointF,Min DewpointF,Max Humidity, Mean Humidity, Min Humidity, Max Sea Level PressureIn, Mean Sea Level PressureIn, Min Sea Level PressureIn, Max VisibilityMiles, Mean VisibilityMiles, Min VisibilityMiles, Max Wind SpeedMPH, Mean Wind SpeedMPH, Max Gust SpeedMPH,PrecipitationIn, CloudCover, Events, WindDirDegrees
2012-2-1,68,59,50,54,40,30,100,55,38,30.25,30.16,30.10,10,10,7,15,8,20,0.02,5,Rain,240
2012-2-2,66,57,48,54,46,28,100,73,30,30.23,30.07,30.00,10,6,0,13,3,21,0.01,5,Fog-Rain,303
2012-2-3,53,42,30,34,30,27,100,67,35,30.52,30.44,30.34,10,10,10,8,2,,0.00,0,,57
2012-2-4,51,42,32,46,37,30,100,82,47,30.38,30.25,30.09,10,9,5,10,2,16,0.02,4,Rain,227
2012-2-5,46,42,35,46,39,34,100,98,87,30.22,30.09,30.02,10,7,0,9,5,9,0.06,8,Fog-Rain,28
2012-2-6,51,38,26,36,30,27,100,81,47,30.31,30.24,30.15,10,8,4,9,1,,0.00,2,,219
2012-2-7,55,42,30,34,31,28,100,67,36,30.20,30.16,30.13,10,10,10,6,1,,0.00,0,,339
2012-2-8,44,35,26,37,32,27,100,89,70,30.22,30.17,30.13,10,9,7,7,1,,0.00,4,Rain,6
2012-2-9,48,39,30,32,28,25,93,68,40,30.30,30.24,30.18,10,10,10,8,2,,0.00,2,,328
2012-2-10,48,37,26,36,31,25,100,81,58,30.22,30.13,29.95,10,10,7,8,2,,0.00,2,,202
2012-2-11,48,38,28,37,27,5,100,67,31,29.93,29.81,29.73,10,9,5,20,4,38,0.00,6,,311
2012-2-12,41,30,19,10,5,0,54,38,26,30.24,30.15,30.04,10,10,10,20,10,37,0.00,0,,301
2012-2-13,50,34,17,19,15,10,93,54,22,30.28,30.21,30.13,10,10,10,9,2,,0.00,0,,254
2012-2-14,53,44,35,36,27,18,58,49,39,30.12,30.07,30.00,10,10,10,18,5,26,0.00,7,Rain,215
2012-2-15,60,45,30,37,32,27,100,64,27,30.30,30.21,30.08,10,9,1,9,1,,0.00,0,,357
2012-2-16,55,45,35,52,39,32,100,76,51,30.29,30.17,30.01,10,8,2,12,2,18,0.13,5,Rain,162
2012-2-17,60,48,37,46,40,30,100,73,31,30.13,30.07,30.04,10,8,0,10,3,16,0.00,1,Fog,317
2012-2-18,62,48,33,37,31,23,93,55,23,30.14,30.07,29.97,10,10,10,12,2,18,0.00,1,,219
2012-2-19,53,42,32,41,33,30,100,84,41,30.01,29.92,29.78,10,7,0,18,8,29,0.18,8,Rain-Snow,35
2012-2-20,46,37,28,32,31,28,100,83,50,30.31,30.17,29.95,10,9,4,12,6,20,0.00,2,,5
2012-2-21,55,38,21,43,32,21,100,81,51,30.35,30.21,30.00,10,10,7,20,3,28,0.00,2,,203
2012-2-22,66,49,32,45,38,30,100,69,28,29.99,29.86,29.65,10,9,3,18,5,26,0.00,1,,223
2012-2-23,69,54,39,55,49,39,100,81,49,29.70,29.65,29.61,10,8,0,15,5,33,0.00,3,Fog-Rain-Thunderstorm,218
2012-2-24,77,68,57,61,57,37,100,70,48,29.65,29.56,29.44,10,10,10,23,13,37,0.02,2,Rain-Thunderstorm,225
2012-2-25,50,44,37,27,19,14,56,39,24,30.23,30.02,29.86,10,10,10,21,9,37,0.00,2,,286
2012-2-26,50,36,21,23,19,14,93,55,25,30.52,30.44,30.34,10,10,10,7,2,,0.00,0,,168
2012-2-27,46,38,30,46,36,23,100,89,65,30.48,30.41,30.32,10,8,2,7,1,,0.15,6,Rain,208
2012-2-28,62,48,33,46,37,28,100,68,27,30.45,30.38,30.32,10,6,0,9,3,,0.00,3,Fog,132
2012-2-29,64,55,46,59,49,36,100,81,58,30.30,30.08,29.86,10,9,2,16,7,23,0.08,7,Rain-Thunderstorm,200